GFSGL_con_lsi_057.txt.gz
Lid_Strength_Index
16 16 16 16 16 17 17 18 18 18 18 18 18 18 18 18 18 18 19 18 18 18 18 17 17 17 17 17 17 16 15 16 18 16 15 14 14 14 13 12 11 12 11
16 16 17 17 17 18 18 18 18 18 18 18 18 18 18 18 19 19 19 18 18 18 17 17 18 16 18 17 17 16 16 16 17 17 15 15 14 13 13 13 12 11 12
16 17 17 17 18 18 18 19 18 19 19 19 19 19 19 19 19 18 18 18 18 18 17 17 17 17 16 16 16 17 16 15 15 15 15 13 13 12 13 12 12 12 11
16 17 17 17 18 18 18 18 19 19 19 19 19 19 19 19 18 18 18 18 18 17 17 17 16 16 15 16 15 15 14 15 14 14 14 13 13 12 12 13 13 12 12
16 17 17 17 17 18 18 18 18 19 19 19 19 19 19 19 18 18 17 18 17 17 16 15 14 14 13 13 14 14 14 14 13 13 13 13 13 13 13 12 13 13 12
16 16 16 16 17 17 17 18 19 19 19 19 19 19 20 19 16 15 16 17 16 16 16 15 14 14 14 12 11 10 10 11 12 13 12 12 12 12 11 12 12 13 15
16 16 16 16 17 17 17 18 19 19 20 20 20 20 20 19 15 14 14 16 15 15 15 14 14 13 14 13 12 10 9 8 7 9 11 11 12 11 11 12 11 12 13
16 16 16 16 16 17 17 18 19 19 19 20 20 20 19 19 15 13 13 15 15 14 14 14 14 13 13 12 12 11 10 9 9 9 10 10 10 9 10 12 13 13 13
16 16 16 15 16 17 17 18 18 19 20 20 20 20 20 19 14 12 12 14 14 14 14 13 13 12 10 8 9 11 10 10 8 7 7 7 7 8 9 12 14 15 16
15 15 15 15 15 16 16 18 19 19 18 19 18 19 19 20 14 12 11 14 18 15 14 12 10 11 8 7 9 10 12 12 11 11 12 11 10 10 9 11 13 15 15
15 15 15 15 15 15 16 18 18 19 19 20 19 19 19 18 18 12 11 13 14 16 15 13 11 8 7 6 6 9 11 8 13 14 14 13 13 12 12 11 11 13 15
16 16 16 16 15 16 17 19 19 19 19 20 20 20 19 17 15 13 11 10 10 14 14 12 11 8 7 6 6 7 7 8 15 15 15 15 14 13 12 12 12 12 12
17 16 16 16 17 17 18 20 20 19 19 19 19 19 19 17 16 12 10 10 9 10 11 10 8 7 6 8 8 8 10 15 17 17 15 14 13 13 13 13 12 13 13
16 18 20 19 20 20 19 18 18 19 19 19 19 18 19 18 16 16 15 14 11 10 10 11 10 8 7 9 13 11 12 14 14 15 14 13 13 15 15 14 15 15 16
20 21 20 20 20 21 19 19 18 20 17 20 19 20 21 20 17 14 14 17 17 13 13 16 15 14 16 16 17 16 15 15 16 15 15 15 16 15 15 15 16 16 17
20 20 20 20 21 21 21 22 14 14 13 12 12 17 20 13 12 10 10 8 7 7 9 15 16 16 17 17 18 18 17 17 16 16 16 16 17 17 17 16 16 17 17
19 20 21 20 21 21 21 20 20 18 11 11 11 10 9 12 10 9 8 7 7 7 12 18 17 17 18 18 18 18 18 17 16 17 17 18 18 18 18 18 17 17 17
22 20 20 20 20 21 21 21 22 21 20 21 16 12 12 11 10 10 9 9 12 13 19 18 19 20 21 20 20 21 20 20 19 20 20 20 20 19 19 19 18 18 18
22 23 23 23 23 22 22 23 24 25 24 22 20 17 17 14 13 12 10 18 20 18 18 20 20 22 22 22 22 23 24 23 23 24 24 23 21 20 20 19 18 19 18
24 22 23 24 24 24 24 24 23 21 20 21 21 21 23 24 25 24 22 21 19 20 19 21 23 26 26 26 25 25 26 28 27 27 27 25 22 20 20 20 20 20 18
26 25 24 25 25 23 22 20 20 20 22 23 24 25 16 20 21 22 21 23 22 22 21 23 25 26 26 26 25 26 26 23 23 28 30 27 24 22 21 20 20 20 17
26 27 27 25 23 21 22 22 23 24 26 28 27 24 16 24 28 30 30 26 25 25 23 23 24 26 25 24 24 23 24 23 26 32 29 27 26 24 22 21 22 19 19
24 24 25 26 26 26 27 29 28 28 28 29 29 28 30 30 30 28 26 26 27 27 26 26 24 23 22 21 21 23 23 24 27 31 30 29 27 26 24 22 22 19 20
25 25 27 29 29 28 29 30 30 28 29 30 31 30 28 28 27 26 25 25 26 26 27 24 20 21 20 22 23 25 25 27 33 30 30 28 26 26 25 23 22 20 21
30 29 29 29 30 29 31 31 30 32 32 30 28 30 29 27 26 26 25 25 25 26 26 21 21 22 22 23 23 26 29 24 26 28 32 32 28 27 25 23 21 20 24
30 29 30 31 31 32 32 31 30 29 28 27 27 26 27 25 25 24 24 24 24 22 21 21 21 22 22 23 25 26 27 23 25 26 28 30 28 25 24 21 22 22 23

GFSGL_con_lsi_060.txt.gz
Lid_Strength_Index
15 15 16 16 16 17 17 18 18 18 18 19 19 19 19 19 19 19 20 20 20 20 19 19 19 18 19 19 18 18 18 19 21 19 17 16 16 16 15 14 14 14 13
16 16 16 17 17 18 18 18 19 19 19 19 19 19 19 19 20 20 20 20 20 19 19 19 19 18 19 19 19 19 19 18 18 19 17 16 16 15 15 15 13 11 11
17 17 17 18 18 18 19 19 19 19 19 19 19 19 20 20 20 19 19 19 19 19 19 19 19 18 18 18 19 19 18 16 16 17 17 15 15 14 14 13 12 11 9
17 17 18 18 18 18 18 19 19 19 19 19 19 19 20 20 19 19 19 19 19 19 18 18 18 18 18 18 18 17 16 16 15 16 16 15 14 13 12 13 13 11 11
17 17 18 17 18 18 19 18 19 19 19 19 19 20 20 20 19 19 19 19 19 19 18 17 17 17 15 15 15 15 15 16 15 15 15 15 14 13 13 12 13 12 11
17 17 17 17 18 18 18 18 18 19 19 19 19 20 20 19 16 15 17 18 18 18 18 18 17 17 16 13 12 11 12 15 20 18 14 13 13 12 12 12 12 14 16
17 17 17 17 17 17 18 18 18 18 19 19 19 19 20 19 15 14 14 18 18 18 18 17 16 15 15 15 13 11 11 10 9 10 12 12 12 11 11 13 13 14 14
17 17 17 17 17 17 18 18 18 18 19 19 19 19 19 19 15 14 14 17 18 18 17 16 16 15 14 14 14 14 13 12 10 9 9 10 9 9 10 12 12 13 13
17 16 16 16 16 17 17 17 18 18 19 18 18 19 20 19 14 13 14 17 17 17 16 15 15 14 12 11 12 13 13 11 8 7 7 7 7 7 8 11 15 15 16
16 16 15 15 15 16 16 17 17 17 17 18 18 19 19 18 15 13 13 17 18 16 15 14 12 13 11 10 11 14 13 12 11 14 13 12 10 11 9 10 12 15 16
15 15 15 15 14 15 15 16 16 17 18 19 19 19 19 19 19 13 12 15 15 16 16 15 14 11 10 8 8 10 11 10 15 16 15 14 13 12 11 10 11 13 15
15 15 15 14 14 15 15 15 17 17 18 19 20 21 20 19 17 14 12 10 11 16 16 14 13 10 9 8 7 6 7 8 19 20 19 16 14 13 12 11 11 12 11
15 15 15 15 14 14 15 16 18 18 18 19 19 19 20 19 18 12 12 10 9 11 12 12 10 9 8 7 7 7 10 16 19 21 17 15 14 12 12 13 12 12 13
15 16 16 16 17 17 16 17 17 19 18 18 19 18 19 19 18 17 16 14 11 10 10 12 11 9 8 9 12 10 13 15 15 16 15 14 13 14 15 14 15 15 16
17 19 19 19 19 20 19 18 17 20 16 18 18 19 21 20 18 15 16 18 20 16 15 22 20 15 14 14 16 15 15 16 16 16 16 16 15 15 15 14 15 17 18
21 21 20 20 21 21 21 22 16 16 14 13 14 18 21 14 12 11 10 10 9 9 12 14 14 15 14 13 14 15 16 17 17 17 18 18 17 17 17 16 16 18 18
20 21 21 21 21 21 21 20 21 20 13 12 11 10 11 13 10 10 9 8 8 7 10 11 15 15 15 15 15 17 17 17 16 17 19 18 18 18 18 19 18 18 19
23 21 21 21 22 23 23 24 23 23 22 22 16 12 12 11 11 10 10 9 14 15 18 18 18 18 17 17 17 18 18 18 18 21 21 22 23 21 20 20 20 20 19
25 26 25 25 26 24 24 25 25 26 26 25 23 17 17 14 13 13 12 20 22 25 24 21 21 19 18 18 19 20 21 23 24 25 26 25 24 25 22 21 20 20 19
27 24 25 25 25 25 24 24 25 26 25 23 21 20 20 21 23 22 23 26 26 24 23 23 23 26 27 27 28 28 28 28 26 26 24 24 24 24 21 21 21 20 21
26 26 25 26 26 27 27 26 25 24 23 23 23 23 17 23 24 25 25 24 26 28 27 28 28 29 26 25 26 28 27 24 25 24 24 25 26 27 25 21 21 21 21
27 28 27 27 26 25 25 22 23 24 26 27 27 27 16 27 31 33 34 33 30 29 28 28 26 27 27 28 28 27 24 23 23 23 25 26 27 30 27 23 23 21 22
26 26 26 26 25 24 26 28 28 28 29 30 31 31 33 33 34 34 32 30 30 30 29 32 29 27 28 27 23 21 22 22 22 24 27 27 32 31 31 26 24 23 23
25 25 25 27 27 28 28 30 30 29 31 32 34 34 33 33 32 30 29 29 29 28 29 29 28 25 26 25 24 21 22 23 24 25 27 31 30 32 31 29 25 23 22
28 27 27 27 28 29 30 31 31 34 34 32 32 33 33 31 30 29 29 28 27 28 26 27 26 25 24 24 22 22 22 21 22 26 32 33 31 33 34 32 27 24 23
28 28 29 30 30 32 32 31 32 31 32 30 30 30 31 29 27 27 26 27 26 26 25 25 25 25 25 23 22 21 21 20 23 26 30 31 31 30 32 29 27 24 22

GFSGL_con_lsi_063.txt.gz
Lid_Strength_Index
15 15 16 16 17 17 18 18 18 18 18 18 18 19 19 19 19 20 20 20 20 20 20 20 19 19 20 20 20 20 20 20 22 20 19 18 18 17 16 15 14 14 14
15 16 16 17 18 18 18 19 18 19 19 19 19 19 19 19 20 19 20 20 20 20 20 20 20 19 20 20 20 20 20 20 20 21 19 19 18 16 16 16 14 13 13
16 16 17 18 18 19 19 19 19 19 19 19 19 19 19 19 19 19 19 20 20 20 19 19 19 19 20 20 20 20 20 18 19 20 19 17 17 15 15 14 14 14 12
16 17 18 18 18 18 19 19 19 19 19 19 19 19 19 19 19 19 19 20 20 20 19 19 19 19 19 19 19 19 19 19 19 19 18 17 16 14 14 15 16 14 13
17 17 17 18 18 18 19 19 19 19 19 19 20 20 20 19 19 19 19 19 19 20 19 18 18 18 16 17 18 19 18 19 18 18 17 16 15 15 15 14 15 13 13
17 17 17 18 18 19 19 19 19 20 20 19 20 20 20 19 16 15 18 19 19 19 19 19 18 18 17 15 14 14 15 18 21 20 17 16 14 14 14 14 13 15 16
17 17 18 18 18 18 19 19 19 20 19 20 20 19 19 19 14 14 15 18 19 19 19 18 18 17 18 18 16 14 13 11 10 12 15 14 14 13 12 12 13 14 14
17 17 17 17 18 18 19 19 19 19 20 20 19 18 18 18 14 13 13 17 18 18 18 18 17 17 17 17 17 17 15 14 13 12 12 12 11 10 10 11 12 13 13
17 17 17 17 17 18 19 19 19 19 19 19 18 18 18 18 14 13 13 16 17 17 17 17 17 17 16 13 15 16 15 13 10 8 8 8 8 8 8 11 16 16 16
16 16 16 16 16 17 17 18 18 17 17 17 17 17 17 17 14 13 13 16 17 17 17 16 15 16 14 12 13 16 15 14 13 14 14 13 11 12 10 11 12 15 15
16 16 16 16 16 16 17 17 17 17 17 18 18 17 18 17 17 13 12 15 16 17 17 17 16 13 11 10 9 12 13 11 12 15 17 16 15 14 13 12 11 12 15
17 17 16 16 15 16 16 16 16 16 17 17 18 18 18 18 17 14 12 11 13 17 17 16 16 12 10 9 9 8 8 7 16 22 21 17 16 14 13 12 12 12 12
15 15 15 15 15 15 15 16 16 16 16 17 18 18 18 19 18 14 13 12 11 12 14 14 12 10 9 9 8 7 9 14 19 21 19 16 15 14 13 13 13 13 13
14 15 15 15 15 14 14 14 15 17 17 17 18 17 17 20 20 19 17 14 12 11 10 12 10 9 9 10 13 11 13 16 17 17 16 15 14 16 16 15 16 15 16
15 16 15 15 15 16 16 16 16 16 15 16 17 17 20 20 19 16 16 18 17 15 17 22 20 17 15 15 15 16 15 15 15 15 16 17 16 16 16 15 16 17 18
19 19 18 19 19 19 20 22 17 17 14 14 15 17 20 16 14 12 11 11 10 10 14 18 17 15 15 14 14 14 15 15 15 16 17 18 17 17 17 17 17 19 19
19 20 20 21 20 21 21 20 22 19 14 13 13 13 14 16 12 11 11 10 9 8 11 11 14 15 16 15 16 15 16 16 15 17 16 16 17 17 19 20 19 19 20
22 21 22 22 22 22 21 22 21 20 20 23 15 13 11 11 11 11 11 13 18 17 19 20 20 19 18 18 19 18 17 17 17 17 17 20 24 23 24 22 21 22 21
24 25 25 26 26 25 25 25 26 26 26 27 25 18 19 14 14 13 15 23 25 24 22 22 22 23 22 23 21 23 24 24 25 26 27 27 26 27 26 23 21 21 20
27 25 26 26 26 26 26 26 27 28 28 28 27 27 26 22 23 24 24 24 28 29 29 29 29 31 32 32 31 30 30 31 30 30 27 25 24 23 23 25 22 22 23
27 27 26 27 28 28 28 27 26 25 26 28 26 22 18 26 27 28 29 30 30 32 32 33 33 34 34 33 33 32 32 28 30 27 26 23 23 25 23 23 22 23 22
28 29 28 28 26 26 28 26 26 25 25 24 27 27 17 27 29 30 33 34 34 35 33 34 33 32 30 31 31 32 30 28 28 24 21 22 24 25 25 24 26 23 22
27 26 27 29 27 25 27 29 27 26 28 28 28 28 29 31 33 35 35 34 36 34 34 37 34 31 31 30 30 27 24 25 26 24 22 24 25 25 27 29 30 27 23
28 27 27 28 27 27 27 29 28 27 28 29 30 31 32 34 35 35 34 34 35 33 34 33 32 30 29 28 29 27 24 25 25 23 23 24 24 25 29 35 30 27 24
28 27 27 28 29 28 28 29 28 30 31 31 33 34 34 35 34 34 33 33 32 31 30 30 30 30 28 27 27 28 27 21 21 22 24 25 26 30 36 35 33 31 27
31 29 30 30 31 32 32 31 32 32 33 32 32 33 33 31 30 30 30 30 29 28 28 29 28 28 27 27 26 24 24 20 21 21 23 27 30 33 34 34 35 32 28

GFSGL_con_lsi_069.txt.gz
Lid_Strength_Index
12 12 13 13 13 14 15 16 17 17 18 18 18 18 18 18 18 17 18 18 18 18 18 18 19 19 19 19 18 18 18 17 18 18 17 17 17 17 16 15 15 15 14
12 13 13 14 14 15 16 17 17 18 18 18 18 18 18 18 18 18 19 18 19 19 19 19 19 19 19 19 18 18 18 18 18 19 18 18 17 16 16 16 16 15 15
13 13 14 15 15 15 16 17 17 18 18 18 18 18 18 18 19 18 18 19 19 19 19 19 18 18 19 18 18 18 18 18 18 18 19 18 17 16 16 15 15 15 15
13 13 14 15 15 15 16 17 17 18 18 18 18 18 19 19 19 19 19 19 19 19 19 18 18 18 18 18 18 18 18 18 18 19 18 18 17 16 16 17 16 15 15
14 14 14 15 15 16 16 17 17 18 18 18 19 19 19 19 19 19 19 19 19 19 18 18 17 17 16 16 17 17 18 18 18 18 18 18 18 17 17 16 17 16 15
14 15 15 16 16 16 17 17 18 18 18 19 19 19 19 19 17 16 18 19 19 19 18 18 17 17 16 14 14 15 16 17 18 18 18 18 17 16 16 16 16 17 18
15 15 15 16 16 16 17 18 18 19 19 19 19 19 19 19 16 15 16 18 18 18 17 17 17 17 17 16 14 13 13 13 13 16 17 16 16 15 15 16 15 15 15
15 15 16 16 16 17 17 18 18 18 19 19 19 18 18 19 15 15 16 18 18 17 17 16 16 17 16 17 17 17 16 15 14 14 14 14 14 14 14 14 14 15 14
16 16 16 16 17 17 17 18 17 18 18 18 18 18 18 19 14 14 16 18 17 17 16 16 16 16 15 13 16 17 16 15 14 12 11 11 11 10 10 13 15 16 16
16 16 16 16 17 18 17 17 17 17 18 18 18 18 18 18 14 13 14 17 16 16 16 16 15 15 14 12 13 15 16 14 15 14 14 13 11 12 11 12 14 16 16
17 17 17 17 17 17 16 17 17 18 18 18 18 18 18 18 16 13 12 14 14 14 15 15 15 12 12 11 11 12 13 13 14 14 15 13 13 14 13 13 13 13 15
17 17 17 17 17 17 18 18 17 18 18 19 18 19 18 17 16 12 10 11 12 14 15 14 13 12 11 9 10 10 10 10 11 12 13 14 14 14 13 13 13 13 12
18 18 17 16 16 16 17 17 17 17 18 18 19 19 18 17 17 14 11 10 9 12 12 12 12 11 10 10 10 10 10 10 11 14 14 14 13 12 13 13 13 13 13
15 16 16 16 16 16 16 16 16 17 17 17 17 17 17 17 17 15 13 12 10 10 9 10 10 11 11 12 12 10 10 11 11 12 12 12 12 14 14 13 14 14 15
15 15 15 15 15 15 15 15 15 15 15 15 15 15 14 14 14 13 13 13 12 11 13 17 16 15 14 13 13 13 12 12 12 12 12 13 14 14 14 14 15 15 17
15 15 14 14 14 15 15 16 14 13 12 11 11 12 13 12 12 12 12 11 11 11 14 17 17 15 15 14 14 13 13 13 13 13 13 14 14 14 14 15 15 17 18
14 16 16 16 16 16 16 16 17 16 11 10 11 12 12 13 11 11 11 10 10 10 15 17 16 16 15 14 14 14 15 14 14 15 15 15 15 15 17 17 17 18 19
21 21 20 17 17 17 16 16 16 16 17 16 13 12 13 12 11 11 10 10 15 16 17 17 17 17 17 17 16 16 16 17 17 17 17 18 19 18 18 19 19 20 21
22 23 24 24 23 22 22 22 22 22 21 22 20 16 18 10 10 12 14 19 19 20 19 19 19 18 18 18 19 20 20 20 20 21 21 22 21 22 21 21 21 21 21
24 24 25 25 25 24 23 23 23 22 22 21 22 21 23 19 21 23 23 22 21 21 21 20 21 22 22 23 23 24 24 25 24 24 24 24 23 24 22 22 22 21 21
28 27 26 27 27 27 26 25 24 24 23 24 24 24 18 21 21 22 22 22 22 22 23 24 25 25 27 27 27 27 26 24 25 26 26 25 26 24 23 21 21 21 21
29 29 29 29 28 27 28 27 26 25 25 24 25 24 14 24 23 23 23 25 26 27 27 26 26 26 26 27 27 26 26 26 26 27 26 26 25 24 23 22 23 22 22
27 28 28 29 28 28 28 29 27 26 26 27 25 24 24 25 26 27 27 28 29 29 30 30 28 28 30 30 29 27 26 26 25 25 26 25 25 23 23 23 23 23 23
28 28 28 30 29 29 29 29 28 28 27 27 28 28 28 29 29 29 30 30 31 31 33 32 31 29 29 29 29 29 28 27 26 26 26 25 25 25 23 24 24 23 23
30 29 30 31 32 32 31 31 29 32 31 29 29 29 31 31 31 31 31 32 32 31 30 31 31 29 28 28 28 29 29 23 23 26 27 25 25 26 25 25 25 26 28
30 31 33 33 33 34 33 31 31 30 30 29 29 30 30 30 29 30 30 31 30 29 29 28 29 28 28 27 27 25 25 22 24 24 25 26 26 27 27 27 29 31 30

GFSGL_con_lsi_072.txt.gz
Lid_Strength_Index
8 8 8 9 9 10 11 12 13 15 16 16 17 17 17 16 16 14 15 15 15 15 15 15 16 16 17 17 17 16 15 15 15 16 16 15 15 15 14 14 14 14 13
8 8 8 9 11 12 13 14 15 16 16 17 17 17 17 17 17 15 16 16 16 16 16 16 17 18 18 17 17 16 15 15 15 16 16 15 15 15 14 14 14 14 13
9 9 9 10 11 13 13 14 15 16 17 17 17 18 17 18 17 17 16 16 16 16 16 17 17 18 19 18 17 16 16 17 16 16 16 16 15 15 14 14 14 13 14
10 10 10 10 11 12 13 14 15 16 17 17 17 18 18 18 18 18 17 16 16 16 16 16 17 18 18 18 17 16 16 16 16 16 16 16 16 15 15 15 15 13 13
10 10 11 11 12 12 13 14 14 16 17 17 17 18 18 18 18 18 18 17 17 17 17 17 17 17 17 16 16 16 16 16 16 16 16 16 16 15 16 14 15 14 13
11 11 11 12 13 14 14 15 15 16 17 18 18 18 19 18 16 16 17 17 17 18 18 18 18 18 16 15 14 14 14 15 15 15 15 16 15 15 14 14 14 15 15
12 12 13 14 14 14 15 16 16 16 17 17 17 18 18 18 15 15 15 17 17 17 17 18 18 17 16 15 13 13 13 13 13 15 15 15 15 13 13 14 14 14 14
13 13 13 14 14 14 15 16 16 16 17 17 18 17 18 18 15 15 16 17 16 16 17 17 17 17 16 16 15 14 14 13 12 12 13 12 12 12 12 12 13 13 14
13 13 13 13 14 14 15 15 15 16 17 16 17 17 17 17 14 14 16 16 16 16 17 17 16 15 14 13 15 15 15 14 13 11 11 11 10 10 10 10 13 15 14
14 13 13 14 14 15 15 15 14 15 16 17 17 17 17 17 14 14 15 16 16 17 17 16 15 14 13 12 13 14 15 14 14 13 13 12 10 10 10 12 12 14 14
14 14 14 14 14 14 14 14 15 16 17 17 18 17 17 16 14 13 13 16 16 16 15 16 15 12 12 12 12 12 12 12 12 12 13 12 12 12 12 11 11 12 13
14 15 15 15 14 14 15 15 15 16 17 17 17 17 16 16 14 13 12 13 13 14 14 13 13 12 11 11 11 11 10 9 10 11 11 12 12 11 11 11 11 11 11
15 16 15 15 15 15 15 15 15 15 15 16 17 17 17 17 16 13 12 11 12 12 12 12 12 11 10 10 9 9 9 9 9 10 10 11 11 11 11 12 11 11 11
15 15 15 15 15 14 14 14 14 15 15 16 16 16 16 16 16 15 13 11 11 10 11 11 10 10 10 10 10 9 9 9 10 10 11 11 11 12 12 12 12 12 12
15 15 14 14 13 14 13 14 14 13 13 14 14 14 15 15 14 14 13 12 11 10 10 11 11 11 11 11 10 11 10 10 11 11 11 12 12 12 12 11 12 13 14
15 14 14 13 13 13 13 13 12 12 12 12 12 12 12 11 11 11 11 11 10 9 10 12 12 11 11 11 11 11 11 12 11 11 12 12 13 13 12 12 12 14 15
13 13 13 13 12 13 13 13 14 13 10 10 10 10 11 11 10 10 9 9 8 9 10 12 12 12 11 11 11 12 12 12 13 13 13 13 13 13 14 14 14 15 16
13 13 11 12 12 12 12 13 13 13 13 12 12 12 12 12 11 10 9 9 10 10 10 12 12 12 12 12 13 14 14 14 15 14 14 15 15 16 16 16 16 18 18
14 14 14 14 14 14 14 13 13 13 12 13 14 13 15 11 11 11 10 11 11 13 14 14 14 14 14 14 15 15 16 16 16 16 16 17 17 17 18 18 18 19 20
18 20 18 15 16 16 15 15 14 14 13 14 14 12 14 13 13 15 16 15 14 14 15 15 15 16 16 16 17 18 18 19 19 19 18 18 18 18 19 19 19 19 19
18 19 21 17 17 17 16 15 15 15 14 14 14 17 16 13 14 15 16 16 15 16 17 16 18 18 19 19 20 20 20 18 19 19 19 19 20 20 20 19 19 18 19
19 19 19 19 19 18 19 18 17 17 17 16 17 17 14 16 16 16 17 18 18 18 18 18 19 19 20 21 21 20 20 19 19 20 19 20 20 20 20 20 20 19 20
19 19 20 20 20 21 19 19 19 18 18 18 18 18 18 18 18 18 19 20 21 21 22 22 21 22 22 22 21 19 19 19 19 19 20 20 20 20 20 20 20 21 21
20 20 20 21 21 20 20 20 20 22 21 20 20 20 20 20 20 21 21 21 22 22 23 24 24 23 22 22 22 22 21 21 20 20 21 20 20 20 21 20 20 21 21
21 21 22 22 22 22 21 21 21 21 21 21 20 21 21 21 22 22 22 22 23 23 23 25 24 24 24 24 23 22 21 21 21 22 22 21 21 21 21 21 21 21 22
23 23 23 23 22 22 22 22 21 21 22 21 21 22 22 22 22 22 22 23 23 23 23 23 23 24 23 22 22 21 22 20 22 23 21 20 21 21 21 22 23 23 23

GFSGL_con_lsi_075.txt.gz
Lid_Strength_Index
6 6 6 6 5 6 6 6 8 9 12 13 15 15 15 15 14 13 14 14 14 15 14 15 15 15 16 16 16 16 16 16 16 18 16 15 15 15 16 15 14 14 14
6 6 6 7 7 7 7 8 9 12 13 14 15 15 16 15 15 15 15 15 15 16 15 16 16 16 17 17 17 17 17 16 16 18 17 16 16 15 15 15 15 15 15
7 7 7 7 8 8 9 10 12 13 14 15 16 16 17 16 16 16 16 16 15 16 16 16 17 17 18 17 17 17 17 18 17 16 17 16 16 16 16 15 15 14 14
7 8 8 9 9 10 11 12 14 15 16 16 16 17 17 17 17 17 17 17 17 17 16 16 17 17 18 18 18 17 17 18 17 17 17 17 16 15 16 16 16 14 15
8 9 9 9 9 10 12 14 14 15 16 16 17 17 17 17 17 17 17 17 17 17 17 16 17 16 16 16 17 17 17 17 17 18 17 17 17 16 16 15 15 15 14
8 9 9 10 12 12 13 14 15 16 16 17 18 18 18 17 15 15 16 17 17 17 17 17 17 17 16 15 15 15 16 16 16 16 16 16 15 15 15 15 15 16 17
10 11 11 12 13 13 14 15 15 16 17 17 17 17 17 17 15 14 15 16 17 17 17 17 17 17 16 16 15 15 15 14 14 15 15 15 15 14 14 15 14 15 15
12 12 12 13 14 14 14 15 15 16 16 17 16 16 17 17 14 14 15 16 16 16 16 17 17 17 17 17 16 15 15 15 14 14 14 14 13 13 13 13 14 14 13
12 12 12 13 14 14 15 15 15 16 16 16 16 16 17 17 14 13 15 16 16 16 16 16 16 16 15 15 16 17 16 15 13 11 11 11 10 10 11 13 14 14 15
13 12 12 13 14 14 14 14 14 15 15 16 16 16 16 17 13 13 15 16 16 16 16 16 15 15 13 12 14 16 17 16 15 15 14 13 12 12 10 11 11 13 14
14 14 13 13 14 14 14 14 15 15 16 16 17 16 16 15 14 12 13 15 15 16 16 16 16 13 12 12 12 14 15 13 13 13 14 14 13 13 12 12 11 11 13
13 13 14 14 14 13 14 15 15 16 17 17 17 17 16 16 14 12 12 13 13 15 15 14 14 12 11 11 11 11 11 11 12 13 14 13 13 12 11 11 11 11 11
15 15 14 14 14 14 14 15 15 15 16 16 17 17 16 15 14 12 11 11 13 14 13 13 12 11 10 10 9 9 10 11 11 11 12 11 11 11 11 12 12 12 12
14 15 15 15 15 14 14 14 15 15 15 15 15 15 15 15 15 14 12 11 11 12 12 11 11 10 10 10 10 9 9 9 10 10 10 11 12 13 14 13 14 13 14
14 14 13 14 14 14 14 14 15 14 14 14 13 13 14 15 14 13 12 12 11 10 10 11 11 11 11 11 11 10 10 10 11 11 11 12 13 13 13 13 14 15 16
14 13 13 14 14 14 14 14 13 12 12 11 11 11 11 11 11 11 11 11 10 9 10 11 11 11 10 10 11 11 11 11 10 11 12 13 13 13 14 13 14 16 17
12 13 12 13 13 13 14 13 14 12 11 10 10 10 10 10 10 9 9 9 9 9 11 11 10 10 10 10 10 11 12 12 12 13 13 13 14 14 15 16 16 17 19
12 12 11 12 12 12 11 11 11 11 12 13 11 11 11 11 10 9 8 8 9 8 9 10 11 11 11 11 12 12 13 15 15 14 15 15 16 17 18 18 18 21 21
13 13 13 12 12 12 12 12 11 11 11 12 13 12 15 11 11 10 9 10 10 10 12 12 11 12 13 13 14 14 14 15 15 16 16 18 20 19 20 20 20 21 22
18 18 16 14 14 14 13 13 13 13 13 13 13 12 13 12 13 14 15 14 13 13 14 14 15 15 15 15 16 16 17 18 19 19 20 20 20 20 21 23 22 22 23
17 18 17 16 17 16 16 16 16 15 14 14 15 16 15 15 13 14 16 16 15 16 16 15 17 17 17 17 17 18 18 18 19 20 20 20 22 24 23 21 23 23 23
18 18 18 18 18 19 18 17 17 17 17 17 17 17 14 16 16 16 17 17 18 19 19 18 18 18 19 19 20 20 20 20 19 21 21 23 24 24 24 22 23 23 23
18 18 19 19 19 19 18 19 19 18 18 19 18 18 18 18 19 18 19 19 20 21 21 21 20 21 21 22 20 20 20 21 22 23 24 23 24 23 23 24 24 25 25
19 19 20 20 20 19 19 20 20 21 20 20 20 20 20 20 20 20 21 20 21 21 22 23 23 22 21 21 22 23 23 24 25 25 25 24 24 24 24 24 24 24 24
21 21 22 21 21 21 20 20 20 21 21 21 21 21 21 22 22 22 23 24 25 24 23 24 23 23 23 24 24 23 22 20 24 22 22 24 24 26 27 27 26 25 25
22 22 22 21 21 21 21 22 22 22 22 22 22 22 22 23 23 23 23 24 24 24 23 23 23 23 23 23 23 21 21 19 21 20 21 22 23 24 26 27 28 28 28

GFSGL_con_lsi_078.txt.gz
Lid_Strength_Index
7 7 8 8 7 7 7 8 9 10 12 13 14 14 13 13 12 11 12 13 12 13 14 15 16 16 17 17 18 18 18 18 19 20 19 17 18 18 17 17 16 16 16
8 7 8 8 8 8 8 9 10 12 14 14 15 16 15 14 13 13 13 13 13 14 15 16 16 16 18 18 18 19 18 17 17 20 19 19 18 17 17 17 17 16 16
8 8 8 9 9 9 10 10 12 14 15 16 16 16 15 15 15 14 14 15 14 15 15 16 17 17 18 18 18 18 18 18 18 18 19 18 18 17 17 17 17 16 15
8 9 9 10 10 10 11 13 14 15 16 17 16 16 16 16 16 15 15 15 16 16 16 16 17 17 18 18 18 18 18 18 18 19 18 19 18 17 17 18 18 16 16
9 9 10 10 10 11 13 14 16 16 17 17 17 17 17 17 17 17 16 16 16 16 16 17 17 17 16 16 17 18 18 18 18 18 18 18 18 18 18 17 17 16 16
9 10 10 11 12 13 14 15 16 17 17 18 17 17 18 17 15 15 16 16 16 16 17 17 17 16 15 14 14 15 16 17 18 18 18 18 18 17 17 17 16 17 18
12 12 12 13 13 13 14 15 16 17 17 18 17 17 17 17 14 13 14 16 16 16 16 17 17 17 16 16 14 14 14 14 15 16 16 16 16 15 15 16 15 15 16
13 14 14 15 15 14 15 15 16 16 16 16 17 16 17 16 13 13 14 16 16 16 16 16 16 17 16 16 16 16 16 15 14 14 15 15 15 14 14 14 14 15 15
14 14 15 15 15 15 16 17 17 17 16 16 16 16 16 16 13 13 14 16 16 16 16 16 16 17 15 14 16 16 16 15 13 13 12 13 12 11 11 13 16 16 17
14 14 14 15 16 16 16 16 17 15 15 15 15 16 16 16 13 12 14 15 16 16 16 16 15 16 14 13 16 16 17 16 15 16 14 12 10 11 10 11 13 15 14
16 16 16 15 16 16 17 17 17 17 16 16 16 16 16 16 15 12 12 15 15 16 16 16 15 13 12 11 13 15 15 14 14 15 15 14 13 13 13 12 11 11 12
16 16 18 18 16 17 18 19 18 18 19 18 17 17 17 16 14 13 12 13 13 15 15 15 14 12 11 10 11 12 11 11 14 14 14 14 14 13 12 11 11 10 10
18 20 20 18 18 17 18 18 18 19 19 20 19 18 18 17 16 13 11 11 12 14 13 13 12 11 10 9 9 9 11 11 12 14 14 13 12 12 11 12 12 12 12
19 20 19 19 18 18 16 17 18 19 19 18 17 17 17 17 17 16 13 11 12 12 12 12 11 11 10 10 10 9 10 10 11 12 12 12 13 13 13 13 14 14 15
18 18 18 18 18 17 17 17 16 16 16 17 18 16 16 17 16 14 13 13 11 11 12 14 14 12 12 11 11 10 11 10 10 10 11 14 14 13 14 13 14 15 17
15 16 16 16 18 17 17 16 12 12 12 11 11 14 16 13 12 11 11 10 10 9 11 11 12 11 12 11 10 10 10 10 11 11 11 12 13 14 14 14 14 16 17
14 15 15 15 15 15 15 15 16 14 11 11 11 11 11 11 10 10 10 10 9 9 12 11 11 10 10 10 10 12 14 14 14 13 13 14 14 14 15 15 15 17 19
13 13 13 13 13 13 14 14 14 13 14 14 11 12 11 11 10 9 9 9 11 9 10 11 11 10 11 12 13 14 16 16 16 15 15 16 15 15 16 17 17 20 22
15 15 14 15 14 13 13 13 14 13 13 14 14 13 14 11 11 11 10 13 12 12 13 13 13 13 13 13 16 17 17 18 18 18 17 17 17 17 19 19 20 20 21
19 16 16 16 17 16 15 15 15 15 14 14 16 17 15 16 17 22 18 17 15 15 15 16 17 17 19 19 20 19 19 19 19 18 18 18 18 18 20 21 21 23 23
18 18 19 19 21 21 20 19 19 17 16 18 22 21 14 20 19 24 22 22 23 24 23 22 23 22 22 22 21 20 20 19 19 19 19 20 20 21 20 20 23 23 26
19 20 20 21 23 21 21 21 21 21 21 22 24 21 15 22 21 22 23 26 27 27 27 26 25 25 24 22 21 22 22 20 20 20 20 20 21 22 22 22 24 25 26
19 20 21 21 21 21 22 23 23 23 23 23 25 26 27 28 28 28 28 29 29 29 30 29 28 28 27 26 24 23 22 21 21 21 21 22 23 23 24 24 25 25 25
21 21 22 22 22 23 22 23 23 23 23 26 26 29 29 30 30 30 30 31 31 31 32 31 31 30 30 29 26 25 24 25 25 23 22 22 22 22 22 23 22 22 24
22 23 23 23 24 23 23 23 23 25 27 27 29 29 31 30 30 31 31 32 32 32 32 32 32 30 27 26 26 25 23 20 23 22 22 22 21 21 21 22 22 26 26
23 23 23 23 23 23 23 24 25 27 28 28 29 30 30 30 30 31 31 31 31 31 31 32 31 29 28 26 25 24 22 19 21 21 23 23 23 22 22 22 23 23 27

GFSGL_con_lsi_084.txt.gz
Lid_Strength_Index
8 8 7 7 7 7 7 8 8 9 9 10 10 9 8 8 8 8 8 8 9 9 9 10 10 10 11 12 13 14 15 15 15 18 17 17 17 17 17 16 16 16 16
8 8 8 8 8 8 8 8 9 9 10 10 12 12 12 9 9 9 9 9 10 10 10 11 11 10 12 12 13 14 14 15 17 19 19 18 18 17 17 17 18 17 17
8 8 9 9 9 9 9 9 10 10 11 12 13 13 14 13 12 11 10 10 10 10 10 11 11 13 13 13 14 14 15 16 17 17 19 18 19 17 18 18 18 17 17
9 9 10 10 9 9 10 10 11 11 12 13 14 14 14 15 15 14 13 12 12 12 12 12 12 13 13 14 15 15 15 16 16 17 19 19 19 18 18 18 18 17 17
10 10 9 10 10 10 11 12 12 13 13 13 14 15 15 15 15 14 14 13 13 13 14 13 13 13 13 13 14 15 15 16 17 18 19 19 19 19 18 18 18 17 17
11 10 11 11 12 12 12 12 13 13 14 14 15 15 16 15 13 12 13 14 14 14 14 14 14 14 13 12 12 13 14 16 17 17 18 18 18 18 17 17 18 18 19
13 13 13 13 13 12 13 13 13 14 15 15 15 16 16 16 13 12 12 13 13 14 14 14 15 15 14 14 12 12 13 13 13 16 17 17 17 16 16 17 17 17 17
14 14 14 14 14 13 13 13 14 15 15 16 16 16 16 16 13 12 12 13 13 13 13 14 14 15 14 13 14 14 15 14 15 14 14 15 14 15 15 15 15 15 16
14 14 15 15 15 15 16 16 17 17 18 18 17 18 16 15 13 12 12 13 14 14 14 14 14 14 13 12 14 15 15 15 13 11 12 12 12 12 13 14 16 17 19
15 15 15 15 17 17 16 17 18 19 16 16 16 15 14 14 13 12 12 14 15 15 14 14 14 14 12 11 15 15 16 15 14 14 13 12 11 12 11 13 14 16 17
16 16 16 17 18 18 18 18 20 19 18 18 15 15 15 14 14 11 10 13 14 15 15 15 14 12 11 11 13 14 14 13 13 14 14 14 14 13 13 12 12 13 15
17 18 17 17 17 17 19 21 21 21 20 16 16 16 15 15 13 11 10 11 12 14 15 14 14 12 12 11 13 12 11 11 13 15 15 15 15 14 13 12 12 11 11
19 19 16 19 18 19 20 21 20 22 20 21 17 16 16 16 14 12 11 10 11 13 13 13 12 11 11 10 10 10 12 13 14 15 16 15 14 13 13 14 13 13 12
15 16 16 19 20 20 19 18 21 22 22 20 21 17 17 17 16 15 13 11 11 12 12 13 12 11 11 11 12 10 11 12 13 14 15 14 14 14 14 14 14 14 15
13 14 14 14 14 15 15 16 16 16 15 18 18 18 17 18 16 14 14 12 11 14 16 16 14 14 14 13 13 13 12 11 11 11 12 13 13 14 13 14 15 15 16
13 14 14 14 15 14 15 14 11 11 11 12 12 14 15 13 12 12 12 11 10 11 15 17 16 14 14 13 13 13 12 12 12 11 11 12 14 14 13 14 15 17 16
16 16 16 15 15 14 14 13 14 12 10 10 10 11 11 11 11 11 11 10 9 10 16 15 16 15 14 14 13 13 14 13 14 13 13 13 14 14 14 15 15 16 18
18 14 16 14 12 12 13 14 13 14 15 15 12 11 10 10 10 10 10 10 11 10 14 14 15 14 14 14 15 15 16 15 16 18 18 16 13 16 17 16 15 18 18
14 13 14 12 12 12 13 14 14 14 15 16 16 15 16 12 13 12 10 15 15 15 16 17 18 19 19 20 18 18 20 21 22 23 22 20 18 19 20 18 17 17 18
15 12 12 12 12 13 14 14 14 15 16 18 19 20 19 19 20 22 21 19 17 18 19 20 21 25 23 24 24 24 24 24 24 23 22 21 20 19 19 20 18 19 20
16 15 14 16 15 15 15 15 15 17 18 19 20 18 15 20 22 22 23 24 24 24 25 25 27 29 30 30 29 28 28 26 27 26 25 23 21 22 21 19 20 21 21
16 17 18 16 16 17 18 18 18 18 20 20 21 20 17 22 23 24 25 27 31 31 31 29 29 31 31 30 30 30 29 29 28 26 24 24 23 22 22 22 23 21 22
19 19 18 18 18 18 19 19 19 20 21 22 22 23 23 24 25 25 29 31 31 30 31 32 32 31 34 35 34 31 29 29 27 25 26 26 25 24 24 24 23 24 23
18 18 19 19 19 19 19 20 20 21 22 23 24 24 24 25 26 29 29 29 30 30 33 35 35 34 35 35 37 37 36 35 35 33 31 30 29 26 26 25 23 23 23
20 20 20 20 20 21 21 22 23 23 23 22 24 24 26 26 26 28 30 33 33 34 32 34 36 36 36 35 35 36 35 27 32 32 35 33 32 32 31 29 26 25 23
21 21 21 22 22 22 22 22 23 23 24 25 26 27 27 26 29 32 32 31 29 30 31 34 36 35 35 34 33 30 29 24 27 28 34 34 33 31 30 28 25 25 24

GFSGL_con_lsi_087.txt.gz
Lid_Strength_Index
8 8 8 8 7 7 7 7 8 8 9 9 9 8 7 7 6 6 6 7 8 8 8 9 9 9 9 11 12 12 13 12 12 16 16 16 17 16 16 15 15 15 15
8 8 8 8 8 8 8 8 8 9 10 10 11 10 9 8 8 8 8 7 8 9 9 10 10 9 10 11 12 13 13 13 12 14 18 17 17 16 16 16 16 16 16
9 9 9 9 9 9 9 9 10 10 11 11 12 12 12 11 9 9 8 9 9 9 9 10 10 11 11 11 12 12 13 13 13 16 18 17 18 16 17 16 17 17 17
10 9 10 10 10 10 10 10 11 11 11 12 13 13 13 13 13 12 12 11 11 11 11 11 11 11 11 12 13 13 13 14 14 15 17 17 17 17 17 17 18 18 18
12 11 11 10 10 10 11 12 12 12 13 13 13 14 14 14 14 14 13 13 12 12 12 12 12 12 12 11 13 13 14 14 15 15 17 18 18 18 18 18 18 17 17
13 13 13 13 13 12 12 13 13 13 13 14 14 14 14 14 12 11 12 14 13 13 13 14 13 13 12 10 10 10 12 13 14 15 17 17 17 17 17 17 17 18 19
15 14 14 14 14 13 13 13 13 13 14 14 14 14 14 14 12 11 11 14 13 13 13 14 14 14 13 12 10 10 11 10 12 14 16 15 16 16 16 17 17 16 17
15 15 15 14 14 14 14 14 14 14 15 15 15 15 15 15 12 11 11 13 14 14 14 14 14 14 14 13 13 13 14 13 12 13 13 14 14 15 14 14 15 15 16
15 15 15 15 15 15 15 15 16 18 18 18 17 18 18 16 12 12 12 13 14 14 14 14 14 15 13 12 13 14 14 14 12 12 12 12 11 11 13 14 16 17 18
16 15 16 16 17 16 16 16 18 19 17 18 17 19 18 18 13 12 12 13 14 15 15 14 14 14 12 11 13 14 15 14 13 13 12 11 11 11 11 13 15 17 18
17 16 17 17 18 17 17 18 19 19 18 20 18 17 14 14 14 12 11 13 13 15 15 15 14 12 11 10 11 13 13 13 12 13 13 13 13 13 12 13 13 14 18
18 18 18 18 18 18 21 20 20 21 21 20 18 16 15 15 14 13 11 10 12 14 14 14 14 11 10 10 12 11 11 12 12 14 14 14 14 14 13 13 12 12 12
21 19 17 17 18 19 20 19 20 22 22 21 18 16 15 15 14 12 11 10 10 13 13 13 13 12 10 10 11 10 11 12 13 14 14 14 14 13 13 13 13 14 13
17 17 18 18 17 18 14 15 16 16 17 16 16 16 16 15 15 15 13 12 11 12 12 13 12 11 11 11 11 11 11 12 14 14 14 14 14 15 14 14 15 16 16
16 15 14 13 14 15 17 18 17 16 14 15 15 15 15 15 14 13 13 12 11 12 13 14 14 14 13 13 14 12 11 11 13 13 13 14 14 14 14 14 14 14 16
19 16 15 17 18 17 18 17 11 11 11 10 10 12 13 11 10 11 11 10 10 11 14 16 16 15 15 14 14 14 14 13 13 14 12 12 12 14 17 17 16 17 16
22 19 15 15 18 18 17 17 18 13 9 8 9 9 9 9 10 10 10 9 9 11 15 16 17 16 16 16 16 14 15 16 17 17 16 17 13 13 13 15 17 17 17
22 19 16 14 16 17 16 13 14 14 13 13 10 10 10 10 9 10 10 10 11 11 15 16 16 15 14 15 16 18 18 17 16 16 14 13 12 12 14 16 17 19 18
18 13 11 14 15 14 13 12 12 14 13 14 14 13 15 12 12 12 11 14 15 16 16 17 17 17 17 17 17 16 15 15 16 17 19 23 22 18 20 19 18 18 18
18 14 13 14 14 15 15 12 11 12 14 15 16 17 16 16 18 19 19 18 18 19 19 20 21 21 21 21 21 21 20 21 23 25 25 24 23 21 21 21 20 20 21
19 16 14 15 17 16 15 17 15 14 15 17 17 14 13 19 20 21 21 23 22 22 22 23 24 25 26 26 25 25 24 26 28 27 27 26 24 23 23 21 22 22 22
20 19 17 16 16 16 17 17 17 17 17 18 20 19 16 21 23 24 24 25 26 27 28 26 27 29 30 29 28 27 29 30 31 30 28 26 25 25 24 24 24 22 23
19 18 17 17 17 17 18 18 18 19 20 21 21 21 22 24 24 26 26 28 27 29 29 28 30 29 31 31 31 33 30 30 30 31 29 29 28 28 28 26 25 26 25
19 19 18 18 18 19 19 19 20 20 21 21 22 23 23 24 24 26 27 28 28 27 27 27 27 28 28 31 33 36 37 36 38 36 35 34 34 32 30 28 26 25 24
20 19 19 19 20 20 20 21 21 22 22 22 23 23 24 26 26 25 25 26 25 25 25 26 28 29 29 31 33 35 36 29 34 35 38 36 35 36 36 35 32 30 27
21 21 20 20 20 20 21 21 22 22 22 23 23 24 26 26 25 25 25 25 25 25 26 28 28 30 31 33 35 31 30 25 29 29 36 37 36 37 37 34 32 31 28

GFSGL_con_lsi_093.txt.gz
Lid_Strength_Index
9 8 8 8 7 7 7 6 6 6 6 6 6 6 6 5 4 4 4 5 6 6 6 7 7 6 7 7 8 8 9 9 11 9 13 14 14 14 14 13 13 12 11
10 9 9 9 8 8 8 8 7 7 7 7 8 8 7 7 6 6 6 6 6 6 6 7 7 7 7 7 8 9 9 9 10 11 13 15 15 14 14 14 14 13 12
11 10 10 10 10 10 9 9 9 8 8 8 9 9 9 9 8 7 7 7 7 7 7 8 8 8 9 8 9 9 9 9 10 11 11 15 15 15 15 15 15 14 13
12 12 12 12 12 11 11 11 11 10 10 10 10 11 11 11 11 11 11 9 8 8 8 9 9 9 9 9 9 10 10 11 11 11 12 16 16 16 16 16 16 15 15
13 13 13 13 13 13 12 13 13 12 12 12 12 12 12 12 12 12 12 11 11 10 11 10 10 10 10 9 10 10 11 11 11 12 13 16 16 17 17 16 17 17 16
14 14 14 14 14 14 14 14 14 13 13 13 13 13 13 13 12 11 11 12 12 12 11 11 11 12 12 10 9 9 10 11 12 12 12 14 15 16 16 16 17 17 18
15 15 15 15 15 15 15 14 14 14 14 14 14 14 14 13 12 11 11 12 12 12 12 12 12 12 12 11 10 9 9 9 9 11 12 13 14 15 15 16 15 16 16
15 16 16 16 16 15 15 15 15 15 15 15 15 15 15 14 12 11 11 12 13 13 13 13 12 12 12 13 12 12 12 11 10 10 12 12 12 13 14 14 14 14 14
15 15 16 16 17 17 18 16 16 16 16 16 16 16 17 16 13 12 12 13 13 13 12 12 12 12 11 11 12 12 12 12 10 10 10 11 11 11 12 13 14 14 15
16 16 16 16 19 19 17 17 17 18 17 16 16 16 18 17 14 12 12 13 13 13 13 12 12 12 11 10 11 11 12 12 12 12 12 11 10 10 10 12 13 14 14
16 16 16 17 18 17 18 18 19 19 19 18 18 17 17 17 15 12 11 12 12 12 11 11 12 11 10 9 9 10 11 11 11 11 12 11 11 11 11 11 11 12 13
17 17 18 18 18 17 22 20 20 21 20 19 19 17 15 16 15 12 11 10 10 11 11 11 11 11 10 10 9 9 9 10 11 11 12 12 12 11 12 11 11 11 11
16 18 18 18 17 17 19 17 18 18 19 18 18 17 17 15 15 13 12 11 10 10 11 11 10 10 10 10 9 8 10 10 10 11 12 12 12 11 12 12 12 12 12
17 18 17 18 16 17 16 16 18 17 17 16 17 16 16 15 15 14 14 14 12 10 11 11 11 10 10 9 10 9 10 10 11 11 12 12 12 12 13 12 13 13 13
19 18 17 16 16 15 14 15 15 15 14 15 15 15 15 15 15 11 10 12 10 10 12 11 12 11 10 10 9 10 10 10 11 11 12 12 12 12 13 12 13 13 13
22 19 19 18 18 16 14 14 13 11 10 10 9 10 11 11 8 9 9 9 8 9 11 12 11 11 11 10 10 10 10 11 11 11 11 12 12 12 13 13 13 13 13
25 22 21 19 18 15 14 16 15 14 10 9 9 10 9 8 7 7 7 7 7 9 11 11 11 10 10 11 11 11 12 12 11 11 11 11 11 11 12 13 14 14 14
26 24 22 20 17 14 13 15 16 14 15 13 11 9 9 8 8 8 6 7 8 10 11 12 12 12 13 12 13 12 12 13 13 13 14 13 12 12 13 13 13 14 15
25 22 21 19 16 15 13 14 14 14 14 16 16 12 13 11 10 10 10 12 13 14 15 16 16 15 15 15 15 16 16 16 16 16 17 17 16 15 16 16 15 16 16
23 22 20 19 17 15 12 13 13 14 14 16 15 15 14 15 17 18 17 16 16 16 16 17 18 18 18 17 17 17 18 18 18 18 19 18 18 17 17 17 17 17 17
22 21 20 18 17 16 15 14 13 13 15 16 17 14 13 17 19 20 20 20 19 19 19 19 20 20 20 19 19 19 20 20 20 20 20 20 20 20 19 18 19 19 19
21 20 19 19 17 16 16 15 14 14 16 17 18 17 16 19 20 20 21 22 24 24 24 23 23 23 23 22 21 20 21 21 22 21 21 21 20 20 19 20 20 20 21
21 20 19 18 18 17 17 16 16 16 17 17 18 19 19 20 21 22 22 24 24 24 26 26 26 26 26 26 24 23 22 22 22 22 21 21 21 21 21 21 22 22 23
21 20 19 19 18 18 18 18 18 17 18 18 19 19 20 20 21 22 22 23 23 24 25 25 25 25 26 26 26 25 25 25 25 24 24 23 24 24 24 25 24 25 24
22 21 21 20 20 20 20 19 19 19 19 19 20 20 20 21 21 21 22 23 23 24 25 25 25 26 26 27 27 27 27 24 27 29 29 27 27 29 29 27 27 27 26
23 22 22 22 21 21 21 20 20 20 20 20 20 20 21 21 21 21 22 22 23 23 23 24 25 25 26 26 27 26 27 23 27 29 30 29 29 30 30 29 31 28 27

GFSGL_con_lsi_096.txt.gz
Lid_Strength_Index
6 5 5 5 5 5 5 4 4 4 4 4 3 3 3 3 2 2 3 3 4 4 5 5 5 5 6 6 7 7 7 8 9 7 9 11 13 13 12 12 12 11 11
7 7 7 7 7 6 6 6 5 5 5 5 5 4 4 4 4 4 4 4 4 5 5 6 6 6 6 6 6 7 8 8 8 9 8 12 13 13 12 13 13 12 12
9 9 9 9 9 8 8 8 7 7 7 6 6 6 6 6 6 6 6 6 5 5 5 6 6 7 8 7 7 8 8 8 8 9 9 14 13 14 14 14 13 13 13
10 10 10 11 11 10 10 10 9 9 9 9 8 9 8 8 9 9 10 8 8 7 7 7 7 8 8 8 9 8 9 9 9 10 10 11 14 14 14 15 15 14 14
11 11 11 11 11 11 11 11 11 11 11 10 10 10 10 10 11 10 11 10 10 10 10 10 9 10 10 9 9 9 10 10 10 11 11 13 15 16 16 14 15 15 15
11 12 12 12 12 12 12 12 12 12 11 11 11 11 11 12 11 11 11 11 11 12 12 11 11 12 12 10 9 9 9 11 12 11 11 11 12 13 13 14 15 17 17
12 13 13 13 13 13 13 12 12 12 12 12 11 11 11 11 11 11 11 11 11 11 11 11 12 11 12 11 10 10 10 9 8 10 11 11 11 12 13 14 14 15 15
12 13 13 13 13 13 13 13 13 12 13 13 12 12 12 12 12 12 12 11 11 11 11 11 11 11 11 12 12 12 12 11 11 10 9 9 9 11 12 12 13 14 13
13 13 13 14 14 14 14 13 13 13 13 13 13 13 13 13 12 12 11 11 11 11 11 11 11 11 11 11 12 12 12 11 10 9 8 8 8 9 10 12 13 14 14
13 13 13 13 14 14 13 14 13 13 14 13 13 13 13 14 12 12 12 11 12 11 11 11 12 12 11 10 11 12 12 11 10 10 10 9 8 9 8 10 11 13 13
14 14 14 14 14 14 14 14 14 14 14 14 14 13 13 13 13 12 11 11 11 11 11 11 10 9 10 10 9 10 10 10 10 10 10 10 10 10 10 9 10 10 12
14 14 14 15 14 13 14 14 13 13 14 13 13 12 11 11 12 12 11 11 10 11 11 10 10 10 9 9 9 9 8 9 10 10 10 10 10 10 9 9 9 9 10
15 15 14 14 14 13 13 13 12 11 12 12 12 12 12 11 11 11 11 11 10 10 10 10 10 10 10 10 10 10 10 9 9 10 10 10 9 9 9 10 10 10 11
16 15 14 14 13 13 12 11 11 11 11 11 12 12 12 12 11 11 10 10 10 9 10 10 10 10 9 9 9 9 9 9 9 9 9 10 10 10 10 10 11 12 13
18 17 15 14 14 14 13 12 12 11 11 11 11 11 12 12 11 10 9 9 9 9 10 9 9 9 9 9 8 9 9 8 9 8 9 10 10 10 11 11 11 11 12
20 17 16 17 15 15 14 12 10 10 10 9 9 9 9 9 8 8 8 8 7 8 9 9 9 9 9 9 9 8 8 8 8 8 8 9 10 11 12 11 11 11 11
22 20 18 18 17 16 14 13 13 11 10 9 9 9 9 9 9 8 7 7 6 7 8 8 8 9 9 8 8 8 9 9 9 9 9 9 9 10 11 12 12 11 12
23 22 20 18 17 16 15 13 12 12 12 10 9 9 9 9 9 8 7 6 7 8 9 9 9 9 9 9 9 9 10 10 11 11 11 10 10 10 11 12 12 12 13
21 20 19 18 17 17 15 14 12 11 11 10 10 10 11 10 10 11 10 8 9 10 11 12 12 11 11 11 11 11 12 12 12 12 13 12 12 11 13 13 14 15 14
20 20 19 18 17 16 14 13 12 10 10 10 10 10 10 11 10 12 13 12 12 13 13 13 14 14 14 13 13 13 13 13 14 14 14 14 14 13 14 14 14 15 15
19 18 18 17 16 16 15 14 12 11 10 10 11 11 11 12 13 14 15 16 15 15 15 15 15 16 16 15 15 14 15 15 15 15 15 15 15 15 15 14 15 15 16
18 18 18 18 17 16 15 14 13 12 10 11 13 13 14 14 15 16 17 18 19 19 18 17 17 18 18 18 17 16 16 17 17 17 17 17 17 16 16 16 16 17 17
18 19 18 17 16 16 15 14 14 13 13 13 14 15 15 16 17 17 18 19 19 19 20 19 19 20 20 21 20 19 18 18 18 19 18 18 18 17 18 17 18 19 19
19 19 18 18 17 17 16 16 15 15 15 15 15 16 16 17 17 18 18 19 19 19 20 20 20 20 21 21 20 21 21 21 21 20 20 19 19 20 19 20 19 20 20
20 20 19 19 19 18 17 17 16 17 17 16 17 17 17 18 18 18 18 19 20 20 20 20 21 21 21 22 22 22 22 20 22 23 23 22 21 22 22 21 21 21 21
21 20 20 20 20 19 19 19 18 18 18 17 17 17 18 18 18 18 19 19 20 20 20 20 20 21 22 22 22 22 23 22 23 26 23 23 23 23 23 22 23 22 22

GFSGL_con_lsi_102.txt.gz
Lid_Strength_Index
8 8 8 8 8 8 8 8 8 7 7 7 7 6 6 6 6 6 5 5 5 5 4 4 4 4 4 4 5 5 6 6 8 6 6 7 9 9 10 11 11 11 10
9 10 10 9 9 10 10 10 10 9 9 9 9 8 8 8 8 8 8 8 7 7 7 7 6 6 6 5 5 6 6 6 7 8 7 7 10 10 10 11 11 11 11
10 10 11 11 11 11 11 11 11 11 11 11 11 11 11 11 11 10 10 10 10 9 8 8 8 7 8 7 7 6 6 6 7 8 8 7 10 13 12 13 12 12 12
11 11 12 12 12 12 12 12 12 12 12 12 12 12 12 12 12 13 12 11 10 10 9 9 9 9 9 8 8 8 8 8 8 9 9 9 8 13 13 13 12 13 12
12 12 12 12 12 12 12 12 13 13 13 13 13 13 13 12 12 13 13 11 11 11 11 10 10 10 10 9 9 10 10 10 10 10 10 10 10 14 14 13 13 12 12
13 13 13 13 13 13 13 13 13 13 13 13 13 13 14 13 10 10 11 13 13 12 11 11 10 10 10 9 9 8 9 10 11 11 11 11 11 10 12 12 12 13 13
13 14 14 14 14 14 14 14 14 14 14 14 14 14 14 14 11 10 10 13 13 13 12 11 10 10 10 11 10 9 10 10 9 10 12 11 11 11 11 11 12 12 12
14 15 14 14 15 14 14 14 15 14 14 14 14 14 14 13 10 10 10 12 12 12 12 11 11 11 11 11 11 10 10 10 10 10 10 10 9 9 10 10 10 10 11
14 15 15 15 16 16 18 15 15 16 16 17 15 16 15 13 10 10 10 12 11 10 10 9 9 9 8 8 9 10 10 10 8 7 7 7 7 7 7 9 10 11 11
15 15 15 16 18 18 16 17 16 17 14 14 14 16 16 15 10 9 9 12 11 11 10 10 9 10 8 8 10 10 11 11 10 9 9 8 8 9 8 9 9 11 12
16 16 16 16 18 18 17 17 18 17 15 18 15 14 15 14 13 9 9 11 12 11 11 11 10 9 9 8 8 10 10 9 9 9 9 9 9 10 10 9 9 10 11
18 18 19 20 18 17 21 20 19 18 15 12 11 11 14 14 11 10 9 9 9 11 11 11 10 9 8 8 8 8 8 8 9 9 9 11 12 10 10 9 9 10 10
23 23 23 21 20 19 21 20 19 19 12 12 12 12 11 11 11 9 9 9 9 10 10 9 8 8 8 8 8 7 8 8 9 9 11 10 10 9 9 12 12 11 11
25 23 22 22 21 21 18 18 20 19 17 13 13 13 12 12 11 11 10 10 9 9 9 9 9 8 8 8 8 7 8 8 8 8 8 9 8 9 12 11 12 11 12
24 21 21 20 22 19 18 18 17 17 15 13 12 12 13 12 11 9 9 10 9 8 8 10 10 9 9 9 9 8 8 7 8 7 7 8 10 12 12 11 11 11 12
23 21 22 22 22 19 19 17 14 12 11 10 10 10 11 10 9 8 8 8 8 7 9 10 10 9 9 9 9 9 8 9 8 8 8 8 10 11 11 11 10 11 12
27 24 24 22 22 22 22 21 19 16 13 12 11 10 9 9 8 8 8 8 8 7 10 10 9 9 9 9 9 9 10 9 10 9 10 10 11 12 12 10 10 11 12
31 26 27 25 24 24 24 22 21 20 19 17 13 11 9 9 8 7 7 7 12 9 9 9 9 9 10 10 10 11 11 11 15 14 14 13 12 11 12 12 11 11 13
29 28 28 27 26 25 24 22 19 17 17 16 14 12 10 8 7 7 7 10 12 10 11 10 11 11 12 12 11 12 15 16 17 18 19 18 16 15 16 16 16 15 15
31 26 26 28 27 26 24 20 18 18 17 16 15 14 12 13 16 15 14 15 14 12 12 12 13 13 13 14 14 15 15 17 19 18 19 21 22 20 19 19 18 17 18
30 28 25 28 27 26 25 23 20 19 18 17 16 14 10 14 16 16 17 16 16 16 15 14 14 15 15 16 16 17 17 18 21 21 22 21 21 20 20 19 19 20 22
30 28 28 28 26 25 24 24 22 19 17 17 17 15 12 19 18 17 16 17 17 17 17 17 16 18 18 19 19 20 20 21 21 21 21 21 22 21 21 21 22 23 24
28 28 28 28 26 24 25 25 22 22 19 21 20 18 22 21 19 18 17 17 18 18 18 18 18 18 19 19 19 20 22 22 22 22 22 23 23 25 25 25 27 27 27
29 28 27 27 27 27 27 26 25 23 22 22 22 22 23 22 20 19 18 18 18 18 18 19 19 19 19 20 20 21 23 22 23 24 23 24 26 27 27 29 29 29 28
29 29 28 28 29 28 26 27 25 26 24 23 22 24 24 22 19 19 19 18 18 19 18 18 18 19 19 20 21 21 21 20 22 23 24 26 26 28 31 31 31 31 30
28 29 30 29 29 29 29 27 26 25 24 23 23 24 23 22 20 19 19 19 18 18 18 18 18 18 19 20 20 19 20 19 22 22 26 25 27 30 33 33 33 33 33

GFSGL_con_lsi_105.txt.gz
Lid_Strength_Index
9 10 10 10 10 10 10 10 9 9 9 9 9 9 9 9 9 9 9 9 9 8 8 7 7 5 5 5 5 5 5 5 7 6 4 5 7 7 7 7 8 8 8
11 11 11 11 11 11 11 11 11 11 11 11 11 11 11 11 10 11 11 11 10 10 9 9 8 7 7 6 6 6 6 5 6 8 6 6 7 7 7 8 8 9 9
11 12 12 12 12 12 12 12 12 12 12 12 12 12 12 12 11 12 12 11 11 10 10 10 10 9 10 9 9 8 8 7 6 7 8 6 6 10 10 10 10 9 9
12 12 12 13 13 13 13 13 13 13 13 13 12 13 13 13 13 13 13 13 12 12 11 11 11 11 11 10 10 10 9 9 9 9 8 8 8 10 12 11 10 11 10
12 13 13 13 13 13 14 13 13 13 13 13 13 14 14 13 13 13 13 14 14 14 13 12 12 11 10 10 10 10 10 10 10 10 10 9 9 10 11 10 11 10 10
13 14 14 14 14 14 14 14 14 14 14 14 14 14 14 14 12 11 12 14 14 14 14 13 13 12 10 9 8 8 7 9 9 9 9 9 9 8 8 8 9 10 11
15 15 15 15 14 14 14 14 14 15 15 15 15 15 15 15 12 11 11 13 14 14 14 13 11 10 10 9 9 8 8 8 8 9 10 10 10 9 9 9 9 10 10
15 15 15 15 15 15 15 15 15 15 16 15 15 16 16 15 12 11 11 13 14 13 13 11 10 10 10 10 9 10 10 10 10 9 9 9 9 8 8 9 9 9 9
15 15 15 16 17 16 18 16 16 17 17 18 16 18 18 16 12 10 11 14 12 12 11 11 10 10 9 8 10 10 10 10 9 8 7 7 6 6 7 8 10 11 12
15 15 15 16 19 19 17 18 17 19 17 16 16 18 18 18 12 10 10 12 13 11 10 10 10 10 9 9 10 10 11 11 10 9 9 8 7 7 7 8 8 10 10
16 16 17 17 19 19 19 19 21 21 19 22 19 18 18 17 16 9 9 10 11 11 11 11 10 9 9 8 8 10 10 9 9 10 9 8 9 10 10 8 7 9 10
18 19 21 22 20 19 24 24 23 24 23 21 20 18 16 15 11 9 8 9 9 10 11 10 10 9 8 9 9 9 8 8 9 9 9 11 9 9 8 7 8 10 10
23 25 25 25 23 23 25 24 22 23 22 20 17 16 14 12 12 10 9 8 9 10 10 9 9 9 9 9 9 8 9 9 9 10 9 9 8 7 7 9 12 11 12
26 26 26 26 25 25 22 21 24 24 22 19 18 13 13 12 11 11 11 10 10 10 9 9 9 9 9 9 10 9 8 9 8 8 8 7 7 8 12 11 12 12 13
26 24 25 24 27 24 21 22 20 20 19 21 15 13 12 12 11 10 10 9 10 10 10 9 11 11 11 10 10 9 9 8 8 8 8 8 8 11 10 12 12 14 14
24 24 25 24 25 22 23 22 16 14 13 12 12 12 13 10 9 9 9 8 8 8 10 11 11 12 10 10 10 9 8 9 9 8 8 8 10 13 12 12 12 13 14
26 25 26 24 24 24 24 24 23 20 15 14 13 12 11 11 10 9 9 8 7 7 10 11 10 10 11 11 11 9 9 9 11 11 11 11 12 13 13 13 14 14 14
32 26 28 27 27 26 25 25 26 26 23 22 16 14 12 11 11 9 8 8 10 15 12 11 10 9 10 10 10 10 10 12 12 13 13 13 14 13 13 14 15 16 17
30 30 29 28 28 27 27 28 26 25 25 23 21 17 17 13 11 11 10 13 13 13 14 13 12 12 11 11 11 11 12 12 13 14 16 19 18 16 18 17 17 16 16
32 27 28 29 29 28 29 27 27 27 25 26 24 21 19 17 22 22 22 20 16 16 16 15 15 14 13 13 13 13 13 14 14 15 17 19 19 19 18 18 18 18 19
29 29 27 30 30 30 30 29 27 27 28 28 24 23 14 15 18 19 22 23 22 20 19 18 17 17 16 16 16 15 15 15 16 16 17 18 20 20 20 18 20 20 19
29 30 30 30 30 29 29 29 29 29 26 26 24 25 15 24 24 23 23 24 25 23 20 20 19 19 20 19 18 18 17 17 17 18 18 19 21 21 21 19 20 19 21
29 30 31 31 31 29 30 30 30 29 29 27 25 24 26 25 25 26 24 25 26 25 20 20 20 20 19 19 19 19 19 19 19 20 20 20 20 20 21 21 21 24 22
30 30 30 31 31 30 31 30 31 29 29 29 29 28 25 26 25 25 24 24 26 24 20 20 20 20 20 20 19 19 19 19 20 21 22 21 20 20 21 23 22 22 27
32 31 31 31 32 31 31 31 30 31 30 28 27 29 29 26 25 25 24 24 23 20 19 19 19 20 20 20 19 19 19 18 19 20 21 22 21 22 25 25 25 25 27
29 29 30 29 28 27 26 25 29 29 28 27 27 27 26 25 24 25 24 24 21 19 19 18 19 19 19 19 19 18 18 17 18 20 22 23 23 25 26 26 27 30 30

GFSGL_con_lsi_108.txt.gz
Lid_Strength_Index
10 10 10 10 11 10 11 10 11 11 11 11 10 10 10 10 11 11 11 11 11 10 10 10 9 8 8 7 7 6 7 6 8 7 6 6 6 7 6 6 6 6 5
11 11 11 11 11 11 12 12 12 12 12 12 12 12 12 12 12 12 12 12 11 11 11 11 11 10 10 10 10 10 9 8 8 10 9 8 7 6 6 7 6 5 6
11 11 12 12 12 13 13 13 13 13 13 13 13 14 14 13 13 12 12 12 12 12 12 12 12 11 12 11 11 11 11 10 9 10 10 8 7 6 7 7 7 6 5
12 13 13 14 14 14 14 14 13 13 14 14 14 14 14 13 13 13 13 13 14 13 13 13 13 13 13 12 12 12 11 11 10 10 10 9 8 7 9 9 8 7 7
13 14 14 15 14 14 14 14 15 15 14 14 14 14 14 14 13 13 14 14 14 14 14 14 14 13 12 11 11 11 11 11 10 10 10 10 9 9 9 8 9 8 8
14 15 15 15 15 15 15 15 15 15 14 14 14 14 15 14 11 11 12 14 14 14 15 14 13 12 11 10 9 9 9 10 10 10 10 11 10 10 10 10 10 11 12
15 15 15 15 15 15 15 15 15 15 15 15 15 15 15 15 12 12 12 14 14 15 14 14 13 12 11 10 9 8 9 8 8 9 10 10 11 10 10 10 10 10 10
15 15 16 16 16 16 15 15 15 15 16 15 16 16 16 15 12 12 11 14 15 14 14 13 12 11 10 10 10 10 9 9 9 9 10 9 9 9 9 9 10 10 9
16 16 16 16 17 16 17 16 16 17 18 18 17 19 19 18 13 12 12 13 13 12 11 11 11 10 9 9 10 10 10 10 8 8 8 7 7 7 7 9 10 10 11
16 16 16 16 18 18 17 18 18 19 18 18 18 19 20 22 14 12 11 12 12 11 11 10 10 10 9 8 10 10 11 11 10 10 10 9 8 10 9 10 9 10 10
16 16 17 18 18 18 19 20 21 22 20 23 21 21 21 20 18 11 10 12 11 11 11 11 11 9 8 8 8 10 10 9 10 10 10 10 11 9 9 8 8 8 9
17 18 20 21 19 20 22 24 24 25 25 25 24 22 19 18 14 11 10 9 9 10 11 10 10 8 8 8 9 8 8 8 10 10 10 10 9 9 8 7 9 10 10
20 21 22 21 22 23 24 25 24 27 26 24 21 22 19 16 16 10 10 9 9 9 9 9 8 8 8 8 8 8 9 10 10 10 10 9 8 7 7 8 10 11 11
21 21 23 23 25 27 24 25 28 27 26 24 21 22 20 18 16 14 11 10 9 9 9 9 9 9 8 8 10 9 10 10 10 10 9 7 7 7 11 8 12 14 14
22 23 24 25 27 26 24 26 23 23 22 23 24 21 21 18 16 11 10 11 10 9 9 9 10 10 11 10 10 10 10 10 10 9 10 8 7 8 11 9 11 15 16
23 23 25 26 27 25 26 25 18 16 15 14 13 15 19 12 11 10 10 9 9 8 10 10 11 14 12 11 11 11 11 10 9 9 9 9 9 13 12 12 13 15 14
24 25 26 25 26 27 27 27 27 22 17 15 14 13 13 12 12 11 10 10 10 10 13 13 13 12 11 10 10 11 13 12 10 10 10 11 11 11 13 13 13 14 14
29 27 27 27 27 28 28 28 28 29 28 26 18 16 14 14 13 11 12 15 19 17 22 15 14 13 12 12 12 12 13 12 12 11 11 12 13 13 14 16 15 17 19
29 29 29 29 30 28 28 29 29 30 30 30 27 20 19 15 13 14 14 25 25 22 19 18 17 15 15 14 14 14 13 13 13 13 13 14 14 15 15 18 18 17 16
31 27 28 28 30 29 30 29 29 30 30 30 30 29 28 26 25 28 28 29 28 26 25 23 21 18 17 17 17 16 15 15 15 15 14 14 15 15 16 18 20 18 19
27 27 27 30 30 31 31 30 29 30 30 31 30 28 16 22 28 29 29 28 27 26 25 25 24 22 19 19 19 18 16 16 16 16 16 15 16 17 17 17 19 19 19
24 27 28 28 29 29 30 29 29 31 31 31 31 30 17 29 31 31 30 28 26 27 26 25 26 25 23 22 20 19 19 18 18 18 18 17 17 17 18 18 19 18 19
26 27 27 30 28 28 29 32 32 32 32 32 32 31 32 31 31 30 29 27 27 27 26 28 26 26 25 23 21 20 20 19 19 20 20 19 19 19 20 20 19 20 19
25 25 25 27 28 30 31 32 32 30 30 31 31 32 31 30 30 29 27 27 27 26 27 26 25 24 25 24 21 20 19 20 20 20 20 20 20 19 19 21 20 21 21
26 26 27 28 29 28 29 29 28 28 27 26 26 28 29 28 28 27 27 27 26 26 25 25 24 24 22 22 20 20 19 18 18 19 19 20 20 20 21 22 22 22 23
28 28 28 28 27 26 26 25 25 24 24 24 25 26 26 25 25 27 26 26 26 25 25 24 24 23 21 20 20 18 18 17 18 18 19 21 21 21 22 23 23 23 23

GFSGL_con_lsi_111.txt.gz
Lid_Strength_Index
10 10 10 11 11 11 11 10 11 10 11 11 11 11 12 12 12 12 12 12 12 12 11 11 11 11 11 11 10 10 10 10 12 11 10 9 10 10 9 8 7 7 6
11 11 11 11 11 12 13 13 11 12 12 12 12 13 13 13 13 13 14 13 13 13 12 12 12 11 13 12 11 11 11 11 11 13 11 11 10 9 8 8 7 6 6
12 12 12 12 12 12 13 12 12 13 14 14 14 14 14 14 14 13 13 13 13 13 13 14 13 13 14 13 12 12 12 11 11 12 13 11 10 9 9 8 7 7 7
12 13 13 13 13 13 13 14 14 14 15 15 15 15 15 14 14 14 13 14 14 14 14 14 14 14 14 14 13 13 12 12 11 12 12 11 10 9 9 9 10 9 9
13 13 13 14 14 14 15 15 15 15 15 15 15 15 15 14 13 13 14 14 15 15 15 15 14 14 12 12 12 12 12 12 11 12 11 11 11 10 10 9 10 10 9
13 14 14 14 15 15 16 16 15 15 15 15 15 15 15 14 11 11 13 15 15 15 15 15 15 14 13 11 11 10 10 11 11 11 11 11 11 10 10 10 11 11 12
14 15 15 15 15 16 15 15 15 16 16 16 16 15 15 14 11 12 12 15 15 15 15 15 14 13 12 12 11 9 9 8 8 9 10 11 11 10 10 10 10 11 11
15 15 16 15 16 15 15 16 16 16 16 16 16 16 16 15 12 12 13 15 15 14 14 14 13 13 12 12 11 10 10 9 9 9 9 9 9 9 9 9 10 11 10
15 15 16 16 16 16 17 17 17 18 18 18 17 18 18 18 13 13 14 14 14 14 13 13 12 12 10 9 10 10 10 10 8 7 7 7 7 8 9 10 13 12 12
15 15 15 16 17 18 17 18 18 18 18 17 17 20 20 21 15 13 13 15 17 14 12 12 11 11 9 8 10 10 11 10 10 9 9 9 9 9 9 10 10 12 11
15 16 17 18 18 17 18 19 19 20 19 22 21 22 22 21 20 13 13 13 14 14 13 12 11 9 8 8 8 9 10 9 9 10 10 10 10 10 9 9 8 9 12
16 17 18 18 18 19 19 21 21 21 21 24 24 22 21 20 17 14 12 12 11 17 15 12 11 8 8 8 8 7 7 8 10 10 11 11 10 10 9 8 7 8 9
17 19 20 20 20 20 20 20 21 22 23 24 22 23 21 19 20 13 12 11 10 13 12 10 8 8 8 9 8 8 8 9 10 11 11 11 9 8 8 9 8 10 10
19 20 21 21 21 21 21 21 22 24 24 23 23 24 24 21 19 17 16 16 12 12 11 12 9 8 8 9 12 10 9 10 11 11 11 11 10 11 11 8 8 12 13
19 21 20 20 21 22 22 23 22 23 23 22 27 25 25 23 19 13 14 17 17 13 11 16 11 10 14 15 14 12 11 10 11 11 12 12 11 10 11 9 10 13 12
20 20 20 21 23 23 23 24 20 18 16 15 15 18 21 14 12 11 11 10 10 11 16 17 16 17 16 14 13 13 11 12 10 10 12 11 11 11 10 10 10 13 13
18 20 22 22 23 24 25 25 25 24 18 15 15 15 14 13 13 12 11 12 13 15 24 24 22 19 16 16 15 14 13 12 13 12 12 11 11 11 10 10 11 12 13
22 21 22 23 24 26 26 28 28 27 27 27 20 17 15 15 14 13 13 18 26 24 28 27 25 23 19 18 17 16 15 14 14 14 14 12 13 13 12 11 11 13 13
25 26 26 27 28 27 28 29 30 32 31 31 31 23 23 16 15 15 16 28 29 30 29 28 28 26 23 21 19 18 18 17 16 17 16 14 14 14 14 13 13 14 15
29 27 27 27 28 29 28 27 28 29 29 30 32 31 31 27 28 30 31 32 33 32 31 31 28 29 27 25 24 23 21 20 19 20 18 16 15 15 15 15 14 15 15
27 27 25 27 25 25 25 25 25 27 29 30 29 30 19 26 29 31 32 32 32 32 30 31 29 30 29 28 29 28 26 23 22 20 20 18 17 17 16 16 16 16 17
25 25 25 25 24 26 26 25 28 28 28 29 31 32 17 30 33 33 33 31 30 31 30 29 27 28 27 27 27 29 27 25 26 23 20 20 19 18 18 17 17 17 17
24 24 25 25 26 25 25 28 28 28 28 29 30 30 32 32 32 32 30 28 29 30 30 32 29 27 27 27 27 25 25 25 25 24 21 20 20 20 19 19 18 18 17
24 24 24 24 25 25 25 26 27 27 28 29 31 31 30 30 28 26 25 27 31 30 30 30 29 27 26 26 27 26 25 24 25 21 20 21 21 20 20 19 19 19 19
24 24 23 23 24 25 25 27 28 29 30 28 28 28 26 25 25 25 27 28 29 30 28 28 28 27 25 25 25 26 25 20 20 20 20 20 21 22 21 21 20 20 20
25 24 24 25 26 26 26 27 26 27 27 25 24 24 23 23 24 25 27 29 29 28 28 28 27 26 25 24 24 22 22 18 18 19 18 20 21 22 21 22 22 22 22

GFSGL_con_lsi_114.txt.gz
Lid_Strength_Index
9 8 7 7 8 8 9 9 11 11 11 11 11 11 11 12 12 13 13 13 13 13 13 13 12 12 12 13 13 12 12 12 14 13 12 12 12 11 10 10 9 9 8
11 10 10 9 10 10 11 12 12 12 12 11 12 13 13 13 14 14 14 14 14 14 14 13 13 12 14 13 13 13 13 12 13 15 13 13 12 11 11 11 10 8 9
12 12 12 12 11 12 13 13 13 13 12 13 13 14 14 14 14 14 14 14 14 14 14 14 15 15 15 14 14 14 13 12 12 14 14 12 12 11 11 11 10 10 8
12 12 13 13 13 14 14 14 14 13 14 14 15 15 15 15 14 15 15 15 15 14 14 15 15 15 15 15 14 14 13 13 13 13 13 13 12 11 10 11 11 10 10
13 13 13 13 13 14 14 14 14 14 15 15 15 16 15 14 15 15 15 14 15 15 15 15 15 15 13 13 13 13 13 13 13 13 13 13 12 12 12 11 11 11 10
13 14 14 14 14 14 14 15 15 15 15 15 16 15 15 14 11 12 14 14 15 15 16 16 15 15 14 12 12 11 12 13 13 13 12 12 12 11 10 10 10 11 13
13 14 14 14 14 15 15 15 16 16 16 16 16 15 16 15 12 12 13 15 15 16 16 15 15 14 15 14 12 11 11 10 9 10 11 11 11 10 10 10 11 12 12
14 14 15 15 15 16 16 16 16 16 16 16 16 16 16 14 12 12 14 15 15 15 15 15 15 15 14 13 12 12 11 10 10 9 9 9 9 9 9 10 11 12 11
15 15 16 15 16 16 16 17 17 17 17 18 17 17 17 17 12 13 14 15 15 16 15 14 14 14 12 11 12 12 11 10 8 7 7 7 7 7 8 10 12 12 13
15 15 15 16 16 16 16 18 18 17 17 17 17 18 18 19 13 13 14 16 18 16 15 14 13 14 11 11 11 11 12 11 10 9 9 9 8 8 7 9 10 12 12
15 16 16 17 16 16 17 18 18 18 18 19 19 20 20 19 18 13 13 15 16 18 17 16 15 11 10 9 9 14 12 8 9 9 10 10 11 9 9 8 8 9 12
16 16 17 17 17 17 18 18 18 18 19 19 19 20 20 20 18 14 13 13 14 19 18 15 15 11 9 8 10 9 8 8 10 10 15 12 13 12 11 9 10 9 8
16 17 18 18 18 18 18 19 19 19 19 20 20 20 21 19 20 14 14 13 13 16 15 13 10 10 9 9 9 9 12 14 11 12 11 11 12 10 10 13 13 12 10
16 18 18 18 19 19 18 18 19 19 20 20 20 21 22 22 21 20 19 19 16 15 13 14 12 10 10 10 14 12 13 14 13 11 11 10 14 15 12 12 12 12 13
17 18 19 18 18 19 19 19 20 20 19 20 21 21 22 23 21 17 18 21 22 17 19 22 19 18 18 18 18 17 16 15 14 12 11 11 12 14 12 11 12 12 12
17 18 18 19 20 20 21 22 19 18 17 16 16 20 21 17 14 13 13 12 12 12 24 25 23 22 21 19 20 19 18 17 16 14 12 12 12 12 12 11 10 13 13
16 18 19 20 20 21 21 21 22 21 17 16 15 14 14 16 13 13 12 12 14 17 28 28 26 24 23 21 22 22 19 19 18 16 15 14 13 13 13 13 12 11 13
17 18 18 19 20 21 22 21 22 22 24 25 17 17 15 14 14 13 13 18 28 27 31 30 29 29 27 25 24 24 22 21 20 19 17 17 15 15 15 14 13 13 13
19 19 19 20 21 21 23 25 25 28 27 30 30 22 23 15 14 13 15 30 30 32 33 32 32 31 29 29 27 27 26 24 22 21 22 21 20 18 17 15 14 14 14
24 23 23 23 24 25 25 26 27 27 27 27 29 27 32 28 28 29 33 34 34 33 33 32 31 33 32 31 30 30 29 28 28 27 25 23 21 19 17 17 16 16 15
25 26 25 26 25 24 25 25 25 24 25 25 24 29 21 27 27 29 31 33 30 31 30 31 31 32 32 31 33 32 32 28 29 28 27 26 23 21 19 17 17 17 16
25 25 26 25 25 25 25 24 25 24 25 24 28 32 16 26 28 29 30 30 30 30 31 31 29 29 29 29 29 30 29 28 29 30 29 28 25 24 20 18 18 17 17
25 26 26 26 25 25 25 25 25 24 25 26 28 26 28 28 29 29 29 29 31 31 29 31 30 29 29 29 29 28 27 26 26 29 27 28 27 25 22 20 19 19 18
24 23 23 23 24 24 23 24 24 25 25 27 25 25 25 26 27 29 29 28 28 26 27 31 31 30 28 28 28 29 27 26 29 26 25 24 25 26 21 20 20 19 19
26 25 24 23 24 23 24 26 26 25 28 24 24 26 26 27 26 26 26 26 26 26 26 27 27 29 28 27 27 28 27 22 23 23 23 23 23 24 21 21 20 20 20
27 27 27 28 27 27 27 27 25 25 24 24 25 25 24 25 24 23 23 24 24 25 26 26 27 29 28 28 27 25 24 20 22 23 23 22 22 22 21 21 21 21 21

GFSGL_con_lsi_117.txt.gz
Lid_Strength_Index
7 7 6 5 5 5 6 7 8 9 10 9 9 10 10 11 10 10 11 11 12 12 12 12 12 12 12 11 11 11 12 12 13 12 11 11 11 11 10 10 10 10 9
9 7 6 7 6 6 8 9 9 11 11 11 11 12 12 11 11 12 12 12 13 13 13 13 13 13 12 12 12 12 13 12 13 14 12 12 12 11 10 10 10 10 9
10 9 9 8 7 8 10 11 11 11 12 13 12 12 12 12 13 13 13 14 14 13 14 14 14 13 13 13 13 13 13 12 12 13 13 11 11 10 11 10 10 9 9
11 10 10 10 9 10 11 11 12 13 13 13 12 13 13 13 14 14 14 14 14 14 14 14 14 13 14 14 14 13 13 13 13 13 13 13 12 11 11 12 12 9 9
12 11 12 12 11 12 12 13 14 13 14 13 13 14 14 14 14 14 14 14 14 15 15 14 13 13 13 13 13 13 13 13 13 13 13 13 13 13 13 12 12 11 10
12 12 13 12 13 13 13 14 14 14 13 13 14 14 14 14 12 13 14 14 15 15 15 15 14 15 13 13 13 12 12 13 13 13 13 14 13 13 12 12 11 12 13
13 13 13 13 14 13 14 14 14 14 14 15 15 14 14 13 12 12 13 15 15 15 15 15 15 14 14 14 13 12 12 12 11 12 13 13 12 11 10 11 10 11 11
13 13 14 13 14 14 14 14 15 15 15 15 15 15 14 13 12 12 14 15 15 15 15 15 14 15 14 13 13 13 12 12 12 12 11 10 9 9 9 9 9 10 9
13 13 14 13 14 15 15 15 16 16 16 16 16 15 14 14 12 13 14 15 15 15 14 14 14 14 13 13 13 14 13 12 11 10 9 8 8 8 8 8 10 11 11
13 13 14 14 14 15 15 16 17 16 17 16 17 16 16 14 12 13 14 14 15 15 15 14 14 14 13 12 14 14 15 13 12 10 9 8 8 8 8 8 9 10 10
13 14 15 15 15 15 16 17 17 17 17 17 17 17 16 15 14 12 12 15 15 15 15 15 15 13 12 11 11 14 13 11 11 11 10 10 10 9 9 8 7 8 9
14 15 15 15 15 16 16 17 17 17 17 18 18 18 17 17 16 12 12 13 13 16 16 15 15 13 12 11 11 11 10 10 12 11 11 11 11 10 9 8 8 7 7
14 15 15 16 16 16 17 18 18 17 17 18 17 17 17 17 17 13 13 13 13 15 14 14 13 12 11 11 11 10 13 13 13 12 12 12 11 10 10 10 9 9 9
15 16 16 16 17 17 17 17 17 17 17 17 17 17 17 17 18 17 17 15 15 14 14 15 14 12 12 12 14 13 13 13 13 13 13 12 11 12 11 10 10 10 10
15 16 16 16 17 18 18 17 17 17 15 16 16 16 18 18 17 16 16 18 18 16 19 19 17 16 16 16 15 15 14 14 15 14 14 14 13 12 12 11 11 10 11
16 17 16 17 17 18 19 20 17 16 15 15 15 17 19 17 15 14 14 13 13 14 20 20 19 18 18 17 18 17 17 17 16 16 16 15 15 14 13 12 12 11 11
15 16 17 17 18 18 18 18 19 18 16 15 15 15 16 16 15 14 13 14 14 17 21 22 20 19 19 19 19 19 19 18 19 18 18 17 16 15 15 14 13 12 12
15 16 16 16 17 17 18 18 18 20 20 20 15 15 14 15 15 14 14 14 20 23 23 22 22 22 22 21 21 21 21 21 20 20 19 18 18 17 16 16 14 14 13
17 17 17 17 17 18 19 19 20 20 20 22 23 19 17 14 14 14 13 20 21 23 25 25 24 24 23 23 23 23 23 22 22 22 21 20 19 18 17 17 16 16 15
19 19 18 18 19 20 21 21 22 21 22 22 23 20 24 22 21 19 19 23 24 24 25 24 25 25 25 25 24 25 24 24 24 23 22 21 20 19 18 18 17 16 16
22 22 22 21 20 20 20 21 21 22 22 22 21 22 21 21 19 19 22 26 24 24 25 25 25 26 26 26 26 26 26 24 24 24 23 22 22 21 20 18 18 17 17
24 24 25 23 23 23 23 23 23 22 22 22 23 24 17 20 23 22 23 24 25 25 25 25 26 26 26 26 26 25 25 25 24 25 24 24 23 22 21 20 19 19 18
26 26 26 26 24 23 23 23 23 22 22 23 23 23 24 20 22 22 22 23 25 27 28 29 27 26 26 26 26 25 24 23 23 23 24 24 24 23 22 21 21 20 19
29 27 27 26 25 24 23 23 23 22 21 22 22 22 23 22 22 23 23 24 24 25 25 26 27 26 24 24 25 25 26 24 25 24 24 24 23 24 23 22 21 21 20
30 29 29 28 27 25 25 23 22 22 22 22 23 22 22 23 24 24 24 23 23 25 24 24 25 25 24 24 23 24 25 23 23 25 25 24 23 24 23 22 22 21 21
31 30 29 28 27 27 26 26 25 24 24 23 23 23 23 23 23 22 23 23 23 23 23 23 23 24 23 23 23 23 24 22 23 24 24 23 23 23 23 23 23 21 21

GFSGL_con_lsi_123.txt.gz
Lid_Strength_Index
5 2 1 1 1 1 1 1 1 1 2 3 4 5 5 7 7 7 8 9 9 9 8 8 9 8 9 10 9 10 11 10 11 11 11 11 11 11 10 10 10 10 10
5 4 1 1 1 1 1 1 2 2 3 4 6 7 7 8 7 8 9 10 9 9 9 10 9 10 10 10 10 11 11 12 12 13 12 12 12 11 11 11 11 10 10
5 5 4 3 3 2 2 3 4 5 6 8 8 9 9 9 8 8 10 9 9 9 10 10 11 11 12 11 11 12 12 12 12 13 13 12 12 12 12 12 11 11 10
6 6 5 5 4 5 6 6 8 8 10 10 9 9 11 10 10 11 10 10 10 10 10 11 11 11 12 12 12 13 12 13 13 13 13 13 13 13 12 13 13 12 12
6 6 6 6 6 5 7 9 11 10 10 11 12 13 12 13 13 13 12 11 11 11 11 12 12 12 12 12 13 13 13 13 13 13 14 13 14 14 14 13 13 13 12
6 7 8 8 8 8 9 11 10 12 13 12 13 12 14 15 11 11 12 12 12 13 14 14 14 14 13 13 12 11 11 13 14 14 14 14 14 14 13 13 13 14 16
6 8 11 11 11 11 12 12 12 12 12 13 13 13 14 13 12 11 11 12 13 13 14 14 15 14 13 13 12 12 13 12 12 13 14 14 14 13 13 14 14 14 14
8 11 12 12 12 13 12 12 13 13 13 13 13 14 13 13 12 11 12 12 13 14 14 14 15 14 13 13 13 13 13 13 13 13 13 13 12 12 12 13 13 13 12
10 11 12 12 13 13 13 13 13 13 13 14 13 13 14 14 10 11 12 13 14 14 14 14 13 13 13 12 13 13 13 13 11 11 11 11 10 10 10 13 15 14 14
9 9 10 11 12 12 12 13 13 13 14 14 14 14 13 13 10 11 13 14 14 15 15 14 13 13 12 12 13 13 15 14 13 14 13 12 12 12 10 12 13 13 13
10 11 11 11 12 12 12 13 13 13 14 14 14 13 14 12 12 12 12 14 14 15 15 14 13 12 12 12 12 13 13 13 13 14 14 14 14 13 12 11 10 11 12
12 12 12 13 12 13 13 13 13 14 13 14 14 14 13 14 13 12 12 13 13 14 14 13 13 12 12 12 12 11 11 12 13 15 15 15 15 14 12 11 10 10 10
13 13 13 13 13 13 13 14 14 13 14 14 15 15 15 14 13 12 12 12 12 13 13 13 12 12 12 12 11 11 12 13 14 15 16 15 14 13 13 12 11 10 10
13 13 13 13 14 13 13 13 14 14 14 15 14 14 15 15 14 13 13 12 12 12 13 13 13 13 13 12 13 12 13 14 15 15 15 14 14 15 15 13 12 12 12
13 14 14 13 13 13 13 13 13 13 13 14 13 14 15 16 15 13 13 13 12 13 13 13 14 15 15 14 14 14 15 15 17 16 15 16 16 15 15 14 15 13 14
13 13 13 13 13 14 14 15 14 13 12 12 12 13 14 14 13 13 12 11 11 12 14 15 16 15 15 14 15 15 16 17 16 15 16 17 17 16 16 16 15 15 15
13 13 13 13 13 14 14 14 16 16 14 13 13 13 13 13 13 12 12 11 11 12 15 15 15 15 15 15 15 16 16 16 17 17 18 17 17 17 18 17 16 16 16
13 14 13 13 13 13 14 14 14 15 16 15 14 14 13 12 13 12 11 11 14 13 14 15 15 15 15 16 16 17 17 17 19 19 18 19 19 19 19 18 17 19 18
13 13 13 13 13 14 14 14 14 14 14 13 15 14 13 12 12 12 12 13 14 14 14 14 14 15 16 16 17 17 18 18 19 20 20 20 20 19 19 19 18 19 19
14 15 14 13 14 14 14 14 14 13 13 13 15 14 14 14 15 15 14 13 14 13 13 14 15 16 17 17 17 18 19 19 20 21 21 20 19 19 19 21 20 20 20
15 15 17 14 14 14 14 14 14 14 15 14 14 14 14 15 14 14 14 14 13 13 14 15 16 17 18 18 17 17 18 18 18 19 19 19 19 20 20 19 20 20 20
17 17 17 17 16 16 16 15 15 15 15 16 15 15 14 15 15 14 14 13 13 14 15 16 17 17 18 18 18 18 18 19 18 18 18 19 19 19 19 19 19 18 18
19 19 18 18 18 19 19 18 18 18 17 17 17 17 18 17 16 16 16 15 16 17 17 17 18 18 18 18 18 18 18 19 18 18 19 19 20 20 19 19 19 19 19
20 20 20 19 19 20 19 19 18 20 20 19 18 18 19 18 18 17 16 16 16 17 18 19 19 18 18 19 19 19 18 17 17 18 18 19 19 19 19 19 19 19 19
22 21 21 21 21 20 20 19 19 19 19 19 19 19 19 19 19 18 17 17 17 18 18 19 20 20 19 19 19 19 20 19 19 19 19 20 20 19 19 20 20 20 20
23 23 23 23 23 22 22 22 21 21 21 20 20 19 19 19 20 19 19 19 19 19 19 19 20 20 20 20 20 19 19 18 19 19 20 20 21 20 20 20 21 21 21